Regional Weather Roundup
Issued by NWS

Home | Current Version | Previous Version | Graphics & Text | Print | Product List | Glossary On
Versions: 1 2 3 4 5 6 7 8 9 10 11 12 13 14 15 16 17 18 19 20 21 22 23 24 25 26 27 28 29 30 31 32 33 34 35 36 37 38 39 40 41 42 43 44 45 46 47 48 49 50
000
ASUS45 KTFX 041910
RWRMT
MONTANA REGIONAL WEATHER ROUNDUP
NATIONAL WEATHER SERVICE GREAT FALLS MT
100 PM MDT SAT JUL 04 2015

NOTE: "FAIR" INDICATES FEW OR NO CLOUDS BELOW 12000 FEET WITH NO
SIGNIFICANT WEATHER AND/OR OBSTRUCTIONS TO VISIBILITY.

MTZ001>007-043-042000-
WEST OF THE DIVIDE

CITY           SKY/WX    TMP DP  RH WIND       PRES   REMARKS
KALISPELL      CLEAR     91  41  17 SW5       29.79F
MISSOULA       SUNNY     89  39  17 VRB5      29.85F
BUTTE          SUNNY     84  33  16 VRB5      30.01F
MULLAN PASS    SUNNY     77  43  29 VRB3      30.06S
DEER LODGE       N/A     84  43  23 NE6       29.98F
EUREKA           N/A     90  41  18 E5        29.78F
HAMILTON         N/A     90  43  19 E6        29.87F
LIBBY            N/A     91  41  17 CALM      29.77F
PLAINS           N/A     94  48  20 SW3       29.80F HX  90
RONAN            N/A     91  49  23 SE2       29.89F
$$

MTZ008-052>055-042000-
SOUTHWEST MONTANA

CITY           SKY/WX    TMP DP  RH WIND       PRES   REMARKS
BOZEMAN        SUNNY     88  45  22 VRB7      29.94F
DILLON         SUNNY     84  40  21 VRB3      29.98F
W YELLOWSTONE  SUNNY     81  36  19 S9G16     30.09F
THREE FORKS      N/A     88  43  20 E1        29.92F
TWIN BRIDGES     N/A     87  37  17 SE7       29.97F
$$

MTZ009-010-012-014-046-048-049-054-042000-
EAST SLOPES AND CENTRAL MONTANA

CITY           SKY/WX    TMP DP  RH WIND       PRES   REMARKS
CUT BANK       SUNNY     75  50  41 N10G18    29.93F
GREAT FALLS    SUNNY     81  52  36 MISG      29.91S
MALMSTROM AFB  SUNNY     80  53  38 N5        29.90F
HELENA         SUNNY     92  40  16 SW7G18    29.86F
CONRAD           N/A     77  61  57 NW9       29.95S
$$

MTZ011-013-016-021-045-047-050-051-042000-
NORTH CENTRAL MONTANA

CITY           SKY/WX    TMP DP  RH WIND       PRES   REMARKS
HAVRE          SUNNY     85  55  35 NE15      29.82S
LEWISTOWN      SUNNY     89  46  22 NW14G21   29.89S
CHINOOK          N/A     82  57  42 N10       29.81S
FORT BENTON      N/A     84  55  37 W7        29.85S
$$

MTZ017>020-022>027-061-062-042000-
NORTHEAST MONTANA

CITY           SKY/WX    TMP DP  RH WIND       PRES   REMARKS
GLASGOW        SUNNY     93  52  24 NW13G18   29.69S HX  90
JORDAN           N/A     96  46  18 W14G24    29.72F HX  92
SIDNEY         SUNNY     93  55  27 S9        29.70F HX  91
WOLF POINT     SUNNY     97  56  25 MISG      29.66F HX  95
PLENTYWOOD       N/A     88  64  45 S3        29.71F
POPLAR           N/A     91  61  35 N3        29.67F HX  91
SCOBEY           N/A     84  56  38 N12       29.76R
$$

MTZ028>42-056>058-042000-
SOUTHCENTRAL AND SOUTHEAST MONTANA

CITY           SKY/WX    TMP DP  RH WIND       PRES   REMARKS
BAKER          SUNNY     91  53  27 SW7       29.80F
BILLINGS       MOSUNNY   97  39  13 NW15      29.84F HX  92
LIVINGSTON     SUNNY     91  39  16 SW12      29.92F
MILES CITY     SUNNY     97  50  20 S7        29.73F HX  94
EKALAKA          N/A     91  49  23 NE3       29.84S
FORSYTH          N/A     93  50  22 W6        29.74F HX  90
LAUREL           N/A     94  44  17 W8        29.84F HX  90
ROUNDUP          N/A     95  40  14 W16       29.75S VSB 0   HX  91
$$

REGIONAL REPORTS...DAKOTAS

CITY           SKY/WX    TMP DP  RH WIND       PRES   REMARKS
WILLISTON      SUNNY     92  62  36 S9        29.70F HX  92
MINOT          SUNNY     86  64  47 S17       29.72F HAZE
DICKINSON      SUNNY     87  64  46 S9        29.77S
BEACH          FAIR      90  57  33 S6        29.78F
CROSBY         FAIR      84  72  65 S7        29.70F
BISMARCK       SUNNY     85  68  56 SE12      29.77F
GRAND FORKS    CLOUDY    84  67  56 S13G22    29.79F HAZE
FARGO          MOSUNNY   83  66  56 S14G24    29.83S
BUFFALO SD       N/A     88  62  41 W9        29.76S
RAPID CITY     SUNNY     88  64  44 NE5       29.84S
$$

REGIONAL REPORTS...WYOMING/IDAHO/WASHINGTON

CITY           SKY/WX    TMP DP  RH WIND       PRES   REMARKS
GILLETTE       SUNNY     90  49  24 E8        29.90F
SHERIDAN       SUNNY     92  47  21 VRB3      29.86F
BUFFALO WY     SUNNY     87  48  25 SE6       29.96S
CODY           SUNNY     90  43  19 NE7       29.94F
YELLOWSTONE LA   N/A     74  49  41 VRB5      30.20F
IDAHO FALLS    SUNNY     86  53  32 VRB5      29.97F
SALMON         SUNNY     84  43  23 NW6       29.89F
BOISE          MOSUNNY   94  46  19 NW8       29.85F HX  90
SPOKANE        PTSUNNY   89  47  23 SW7       29.82F
$$

REGIONAL REPORTS...ALBERTA

CITY           SKY/WX    TMP DP  RH WIND       PRES   REMARKS
EDMONTON       SUNNY     70  45  40 NW9G17    29.93S
CALGARY        PTSUNNY   72  46  40 SE7       29.94S
LETHBRIDGE     MOSUNNY   72  54  53 S7        29.93S
MEDICINE HAT   MOSUNNY   81  46  30 CALM      29.87S
WATERTON GATE    N/A     70  52  52 NE5         N/A
CARDSTON         N/A     70  54  56 E3          N/A
MILK RIVER       N/A     75  52  43 NE12        N/A
ONEFOUR          N/A     81  46  30 E9          N/A
$$

REGIONAL REPORTS...SASKATCHEWAN

CITY           SKY/WX    TMP DP  RH WIND       PRES   REMARKS
SWIFT CURRENT  MOSUNNY   73  52  46 N14G22    29.85R HAZE
REGINA         TSTM      68  64  88 E7        29.78F
SASKATOON      CLOUDY    77  50  38 NW13G21   29.80S SMOKE
CYPRESS HILLS    N/A     70  48  46 NE8G18      N/A
ROCKGLEN         N/A     75  59  57 N18G28      N/A
ASSINIBOIA       N/A     72  46  40 NW12G18     N/A
$$



USA.gov is the U.S. government's official web portal to all federal, state and local government web resources and services.